Flag for Maldives Weather past 2 weeks in Male, Maldives

Now
88 °F

Partly sunny.


Feels Like: 98 °F
Forecast: 78 / 87 °F
Wind: 6 mph from Southeast

Location: Male Airport

Current Time: Jul 31, 2015 at 10:39:33 AM

Latest Report: Jul 31, 2015 at 10:00 AM


Visibility: N/A

Pressure: 29.92 "Hg

Humidity: 66%

Dew point: 75 °F

Location of MaleLocation

Historic Weather in Male — Graph

°F

Male temperature yesterday

Maximum temperature yesterday: 90 °F (at 3:00 PM)
Minimum temperature yesterday: 82 °F (at 2:00 AM)
Average temperature yesterday: 85 °F

Past Weeks' High & Low Weather Summary

 TemperatureHumidityPressure
High90 °F (Jul 30, 3:00 PM)100% (Jul 23, 2:00 AM)29.95 "Hg (Jul 23, 2:00 AM)
Low75 °F (Jul 22, 11:00 PM)63% (Jul 30, 3:00 PM)29.74 "Hg (Jul 16, 2:00 PM)
Average84 °F77%29.85 "Hg
* Reported Jul 16 9:00 AM — Jul 31 9:00 AM, Male, Weather by CustomWeather, © 2015

Note: Actual official high and low records may vary slightly from our data, if they occured in-between our weather recording intervals... More about our weather records

Advertising

Male weather history for previous 24 hours

 ConditionsComfort  
Time TempWeatherWind HumidityBarometerVisibility
9:00 AM
Fri, Jul 31
86 °FScattered clouds.2 mph70%29.92 "HgN/A
8:00 AM86 °FScattered clouds.1 mph70%29.89 "HgN/A
7:00 AM82 °FScattered clouds.2 mph79%29.86 "HgN/A
6:00 AM81 °FPassing clouds.1 mph79%29.86 "HgN/A
5:00 AM82 °FPassing clouds.2 mph74%29.83 "HgN/A
4:00 AM82 °FPassing clouds.3 mph79%29.83 "HgN/A
3:00 AM82 °FPassing clouds.2 mph74%29.83 "HgN/A
2:00 AM82 °FPassing clouds.No wind79%29.86 "HgN/A
1:00 AM82 °FPassing clouds.No wind79%29.89 "HgN/A
12:00 AM82 °FPassing clouds.No wind79%29.89 "HgN/A
11:00 PM
Thu, Jul 30
84 °FPassing clouds.No wind70%29.92 "HgN/A
10:00 PM84 °FPassing clouds.1 mph70%29.92 "HgN/A
9:00 PM84 °FPassing clouds.1 mph70%29.92 "HgN/A
8:00 PM84 °FPassing clouds.No wind70%29.89 "HgN/A
7:00 PM86 °FPassing clouds.N/A75%29.89 "HgN/A
6:00 PM86 °FPartly sunny.1 mph70%29.86 "HgN/A
5:00 PM88 °FPartly sunny.1 mph66%29.86 "HgN/A
4:00 PM88 °FPartly sunny.3 mph66%29.83 "HgN/A
3:00 PM90 °FPassing clouds.3 mph63%29.86 "HgN/A
2:00 PM88 °FPassing clouds.3 mph70%29.86 "HgN/A
1:00 PM88 °FScattered clouds.2 mph70%29.89 "HgN/A
12:00 PM88 °FScattered clouds.3 mph66%29.89 "HgN/A
11:00 AM88 °FScattered clouds.6 mph66%29.92 "HgN/A
10:00 AM88 °FScattered clouds.6 mph66%29.92 "HgN/A
Weather by CustomWeather, © 2015

See weather overviewHow to use our weather pages